Flag for Colombia Weather past 2 weeks in Cali, Colombia

Now
68 °F

Fog.


Feels Like: 68 °F
Forecast: 68 / 78 °F
Wind: 2 mph from North

Location: Cali / Alfonso Bonillaaragon

Current Time: Dec 18, 2014 at 7:12:08 AM

Latest Report: Dec 18, 2014 at 7:00 AM


Visibility: 2 mi

Pressure: 30.03 "Hg

Humidity: 94%

Dew point: 66 °F

Location of CaliLocation

Historic Weather in Cali — Graph

°F

Cali temperature yesterday

Maximum temperature yesterday: 86 °F (at 3:00 PM)
Minimum temperature yesterday: 54 °F (at 1:00 AM)
Average temperature yesterday: 73 °F

Past Weeks' High & Low Weather Summary

 TemperatureHumidityPressure
High90 °F (Dec 3, 1:00 PM)100% (Dec 6, 1:00 AM)30.09 "Hg (Dec 6, 1:00 AM)
Low54 °F (Dec 17, 1:00 AM)40% (Dec 6, 3:00 PM)29.75 "Hg (Dec 3, 3:00 PM)
Average74 °F77%29.97 "Hg
* Reported Dec 3 5:00 AM — Dec 18 5:00 AM, Cali, Weather by CustomWeather, © 2014

Note: Actual official high and low records may vary slightly from our data, if they occured in-between our weather recording intervals... More about our weather records

Advertising

Cali weather history for previous 24 hours

 ConditionsComfort  
Time TempWeatherWind HumidityBarometerVisibility
5:00 AM
Dec 18
66 °FFog.3 mph94%30.00 "Hg6 mi
4:00 AM66 °FPassing clouds.3 mph94%29.99 "Hg6 mi
3:00 AM66 °FPassing clouds.3 mph94%29.98 "Hg6 mi
2:00 AM66 °FPassing clouds.3 mph94%30.01 "Hg6 mi
1:00 AM68 °FPassing clouds.3 mph94%30.03 "Hg6 mi
12:00 AM68 °FScattered showers. Passing clouds.3 mph94%30.06 "Hg6 mi
11:00 PM
Dec 17
68 °FScattered showers. Passing clouds.3 mph94%30.06 "Hg6 mi
10:00 PM73 °FPassing clouds.7 mph78%29.98 "HgN/A
9:00 PM70 °FPassing clouds.3 mph94%30.05 "Hg5 mi
8:00 PM73 °FPassing clouds.5 mph78%30.02 "Hg6 mi
7:00 PM73 °FPassing clouds.7 mph78%29.98 "HgN/A
6:00 PM75 °FScattered showers. Passing clouds.7 mph74%29.96 "HgN/A
5:00 PM77 °FScattered showers. Scattered clouds.9 mph65%29.93 "Hg5 mi
4:00 PM86 °FScattered showers. Broken clouds.12 mph46%29.91 "Hg5 mi
3:00 PM86 °FScattered showers. Scattered clouds.9 mph46%29.91 "Hg6 mi
1:00 PM84 °FScattered showers. Partly sunny.3 mph55%29.96 "Hg5 mi
12:00 PM82 °FBroken clouds.5 mph58%30.01 "Hg6 mi
11:00 AM81 °FBroken clouds.5 mph62%30.05 "Hg6 mi
10:00 AM77 °FBroken clouds.3 mph69%30.06 "Hg6 mi
9:00 AM73 °FPartly sunny.5 mph78%30.06 "Hg6 mi
8:00 AM72 °FPartly sunny.5 mph83%30.06 "Hg6 mi
7:00 AM72 °FPartly sunny.No wind83%30.04 "Hg6 mi
Weather by CustomWeather, © 2014

See weather overviewHow to use our weather pages